Voltar ao catálogo

STARLINK-37880

AtivoComunicaçõesSSO
NORAD 69546·PAYLOAD·🇺🇸 United States

Lançado Jun 15, 2026 de Vandenberg Space Force Base

Loading…

Próximas Passagens (próximas 24 horas)

TLE

AtualizadoSource: CelesTrak SupGP

Época: Sep 14, 2026, 21:26 UTC

1 69546C 26135A   26257.89354167  .00031419  00000+0  97548-3 0  2572
2 69546  97.2832 285.7436 0001394  86.2495  18.0451 15.33418206    12

Acompanhe STARLINK-37880 em tempo real com AllMySat

Download on the App Store